[[{"header":{"parameterUnit":"m.s-1","parameterCategory":1,"la1":30.2991,"la2":30.254,"lo1":-89.0895,"lo2":-89.0444,"dy":0.0017,"dx":0.0017,"nx":28,"ny":28,"refTime":"2026-02-12T03:00:00:Z","depth":0,"parameterNumber":2,"parameterNumberName":"U-component_of_WINDS"},"data":[0,0,0,0,0,0,0,0,0,0,0,0,0,0,0,0,0,0,0,0,0,0,0,0,0,0,0,0,0,0,0,0,0,0,0,0,0,0,0,0,0,0,0,0,0,0,0,0,0,0,0,0,0,0,0,0,0,0,-0.8902,-0.8902,0,-0.8907,-0.8907,-0.8907,-0.8947,-0.8948,-0.8949,-0.895,-0.8955,-0.8954,-0.8953,0,0,0,0,0,0,0,0,0,0,0,0,0,-0.8926,-0.8925,-0.8902,-0.8902,-0.8902,-0.8907,-0.8907,-0.8907,-0.8947,-0.8948,-0.895,-0.8951,-0.8955,-0.8954,-0.8953,0,0,0,0,0,0,0,0,0,0,0,0,0,-0.8922,-0.8925,-0.8902,-0.8923,-0.8925,-0.8907,-0.8907,-0.8907,-0.8947,-0.8948,-0.895,-0.8951,-0.8955,-0.8954,-0.8953,-0.8916,0,0,-0.8949,-0.8949,0,0,0,0,0,0,0,0,-0.8922,-0.8921,-0.8919,-0.8921,-0.8923,-0.8928,-0.8917,-0.891,-0.8946,-0.8938,-0.895,-0.8952,-0.8945,-0.8944,-0.8942,-0.8916,-0.8916,-0.8949,-0.8949,-0.8948,-0.8948,0,0,0,0,0,0,0,-0.8922,-0.8921,-0.8904,-0.8919,-0.8922,-0.8931,-0.8932,-0.8916,-0.8933,-0.8939,-0.8942,-0.8942,-0.8946,-0.8943,-0.8943,-0.8916,-0.8949,-0.8948,-0.8948,-0.8947,-0.8858,-0.8857,0,0,0,0,0,0,-0.892,-0.8921,-0.8904,-0.8904,-0.8926,-0.893,-0.8931,-0.8925,-0.8933,-0.8936,-0.8941,-0.8944,-0.8945,-0.8944,-0.8943,-0.8899,-0.8948,-0.8947,-0.8946,-0.886,-0.8858,-0.8856,0,0,0,0,0,0,-0.892,-0.8918,-0.8903,-0.8913,-0.8912,-0.8928,-0.8921,-0.8924,-0.8921,-0.8935,-0.8938,-0.8935,-0.8946,-0.8945,-0.8922,-0.8899,-0.8946,-0.8945,-0.8862,-0.8859,-0.8857,-0.881,0,0,0,0,0,0,-0.8921,-0.8918,-0.8904,-0.8913,-0.8911,-0.8883,-0.8919,-0.8923,-0.8919,-0.8923,-0.893,-0.8932,-0.8947,-0.8923,-0.8921,-0.8899,-0.8944,-0.8864,-0.8861,-0.8858,-0.8814,-0.8807,-0.88,0,0,0,0,0,-0.8921,-0.8891,-0.8903,-0.8901,-0.8895,-0.8881,-0.8881,-0.8898,-0.8917,-0.8903,-0.8912,-0.8932,-0.8902,-0.8921,-0.8918,-0.8895,-0.8865,-0.8861,-0.8858,-0.8817,-0.8808,-0.8801,0,0,0,0,0,0,-0.8879,-0.8892,-0.8906,-0.8878,-0.8878,-0.8888,-0.8871,-0.8888,-0.8883,-0.8887,-0.8908,-0.891,-0.8883,-0.8887,-0.8907,-0.8859,-0.8887,-0.8883,-0.8857,-0.8849,-0.8842,-0.8842,-0.8943,0,0,0,0,0,-0.8867,-0.8855,-0.8867,-0.8841,-0.884,-0.8855,-0.885,-0.8863,-0.8865,-0.8865,-0.8872,-0.8872,-0.8863,-0.8856,-0.8848,-0.8815,-0.8816,-0.8798,-0.8791,-0.8785,-0.8781,-0.8763,-0.8754,-0.8844,-0.8844,-0.8844,0,0,-0.8841,-0.8846,-0.8838,-0.8832,-0.8834,-0.8821,-0.8855,-0.884,-0.8831,-0.8863,-0.8842,-0.8846,-0.8848,-0.8819,-0.8807,-0.8822,-0.8757,-0.8781,-0.8776,-0.8775,-0.8758,-0.8749,-0.8742,-0.8841,-0.8842,-0.8842,0,0,-0.8787,-0.879,-0.8768,-0.8769,-0.8771,-0.8781,-0.8776,-0.8783,-0.8787,-0.8766,-0.879,-0.8779,-0.8762,-0.8762,-0.876,-0.8704,-0.8722,-0.8701,-0.8665,-0.8647,-0.864,-0.8634,-0.8613,-0.8605,-0.8697,-0.8697,-0.8696,0,-0.8754,-0.8736,-0.8755,-0.8738,-0.8734,-0.8762,-0.874,-0.874,-0.8739,-0.8736,-0.8752,-0.8731,-0.8734,-0.8706,-0.8692,-0.8689,-0.8683,-0.87,-0.8639,-0.8633,-0.8628,-0.8608,-0.86,-0.8694,-0.8694,-0.8694,-0.8695,0,-0.8695,-0.8681,-0.8663,-0.8662,-0.8656,-0.8636,-0.8652,-0.8644,-0.8657,-0.8665,-0.8643,-0.8648,-0.8641,-0.8635,-0.8648,-0.8607,-0.8616,-0.8636,-0.8665,-0.8616,-0.8598,-0.8591,-0.869,-0.8691,-0.8692,-0.8692,0,0,-0.8615,-0.8623,-0.8616,-0.8615,-0.8619,-0.8609,-0.859,-0.8583,-0.8576,-0.8574,-0.8558,-0.8543,-0.8561,-0.8558,-0.8571,-0.8555,-0.8509,-0.8576,-0.8577,-0.8563,-0.8464,-0.8449,-0.844,-0.8521,-0.852,-0.8519,-0.8463,0,-0.8562,-0.8531,-0.8547,-0.8513,-0.85,-0.8526,-0.8509,-0.851,-0.8516,-0.8506,-0.8514,-0.8502,-0.8527,-0.8525,-0.8511,-0.8518,-0.8489,-0.8522,-0.8506,-0.8505,-0.8504,-0.843,-0.8415,-0.8362,-0.8456,-0.8455,-0.8454,0,-0.8497,-0.8492,-0.8456,-0.8462,-0.8457,-0.8442,-0.8436,-0.8426,-0.8427,-0.8433,-0.8429,-0.8445,-0.8427,-0.8455,-0.8429,-0.8451,-0.8445,-0.8448,-0.8446,-0.8445,-0.8477,-0.8426,-0.8346,-0.8337,-0.8444,-0.8444,-0.8445,0,-0.8441,-0.8425,-0.8402,-0.8401,-0.8406,-0.8395,-0.8397,-0.8398,-0.8393,-0.8388,-0.8384,-0.8377,-0.8373,-0.8366,-0.838,-0.84,-0.8352,-0.8382,-0.8355,-0.8355,-0.8344,-0.8344,-0.826,-0.8341,-0.8341,-0.8341,-0.8341,0,-0.838,-0.8357,-0.8377,-0.8362,-0.8337,-0.8356,-0.833,-0.8335,-0.8336,-0.8322,-0.8344,-0.8331,-0.835,-0.8339,-0.8349,-0.8325,-0.8324,-0.8327,-0.833,-0.8325,-0.8324,-0.8321,-0.8325,-0.8339,-0.834,-0.834,-0.834,0,-0.8314,-0.8326,-0.8302,-0.8309,-0.831,-0.8291,-0.8297,-0.8283,-0.8291,-0.8274,-0.8271,-0.8283,-0.827,-0.8284,-0.8272,-0.8279,-0.8246,-0.8255,-0.8246,-0.8248,-0.8221,-0.8223,-0.8131,-0.812,-0.8209,-0.8208,-0.8207,0,-0.8274,-0.8257,-0.8261,-0.8254,-0.8254,-0.8242,-0.8236,-0.8253,-0.8246,-0.8244,-0.823,-0.822,-0.8212,-0.819,-0.8198,-0.8189,-0.8197,-0.8165,-0.8196,-0.819,-0.8195,-0.8196,-0.8194,-0.8159,-0.8158,-0.8157,-0.8157,0,-0.8201,-0.8208,-0.8199,-0.8191,-0.8183,-0.8178,-0.8175,-0.8167,-0.8185,-0.8175,-0.8162,-0.8156,-0.8144,-0.8132,-0.8125,-0.8127,-0.8144,-0.8147,-0.814,-0.8134,-0.8129,-0.813,-0.8229,-0.8149,-0.815,-0.815,-0.8151,-0.8151,-0.8147,-0.8132,-0.8133,-0.8121,-0.812,-0.8116,-0.8104,-0.811,-0.8099,-0.809,-0.8101,-0.8085,-0.8084,-0.8077,-0.8076,-0.8063,-0.8076,-0.8067,-0.8064,-0.8061,-0.8057,-0.8132,-0.8062,-0.8062,-0.8062,-0.8063,-0.8063,0,-0.8074,-0.8076,-0.8065,-0.8059,-0.805,-0.8067,-0.8064,-0.8055,-0.804,-0.8038,-0.803,-0.8014,-0.8003,-0.8009,-0.8,-0.7988,-0.7995,-0.7985,-0.7985,-0.7985,-0.8046,-0.8052,-0.7979,-0.7979,-0.7979,-0.7979,-0.7979,-0.7979,-0.8036,-0.8012,-0.8018,-0.7994,-0.7995,-0.798,-0.7976,-0.7972,-0.7971,-0.7952,-0.7943,-0.7947,-0.7948,-0.7938,-0.7928,-0.793,-0.7925,-0.7911,-0.7916,-0.7973,-0.7981,-0.7989,-0.7995,-0.791,-0.791,-0.7856,-0.7856,-0.7855]},{"header":{"parameterUnit":"m.s-1","parameterCategory":1,"la1":30.2991,"la2":30.254,"lo1":-89.0895,"lo2":-89.0444,"dy":0.0017,"dx":0.0017,"nx":28,"ny":28,"refTime":"2026-02-12T03:00:00:Z","depth":0,"parameterNumber":3,"parameterNumberName":"V-component_of_WINDS"},"data":[0,0,0,0,0,0,0,0,0,0,0,0,0,0,0,0,0,0,0,0,0,0,0,0,0,0,0,0,0,0,0,0,0,0,0,0,0,0,0,0,0,0,0,0,0,0,0,0,0,0,0,0,0,0,0,0,0,0,-2.6939,-2.694,0,-2.6973,-2.6973,-2.6973,-2.7002,-2.7003,-2.7003,-2.7003,-2.7034,-2.7035,-2.7035,0,0,0,0,0,0,0,0,0,0,0,0,0,-2.6899,-2.69,-2.6939,-2.694,-2.694,-2.6973,-2.6973,-2.6973,-2.7002,-2.7003,-2.7003,-2.7004,-2.7034,-2.7035,-2.7035,0,0,0,0,0,0,0,0,0,0,0,0,0,-2.6923,-2.69,-2.6939,-2.6959,-2.6961,-2.6972,-2.6973,-2.6974,-2.7002,-2.7003,-2.7003,-2.7004,-2.7034,-2.7034,-2.7035,-2.703,0,0,-2.7037,-2.7038,0,0,0,0,0,0,0,0,-2.6922,-2.6924,-2.6955,-2.6957,-2.696,-2.6984,-2.697,-2.6992,-2.7002,-2.6986,-2.7003,-2.7004,-2.7017,-2.7019,-2.7024,-2.7031,-2.7032,-2.7038,-2.7038,-2.7038,-2.7039,0,0,0,0,0,0,0,-2.692,-2.6923,-2.6952,-2.6956,-2.6958,-2.6965,-2.6969,-2.6974,-2.6998,-2.6988,-2.699,-2.6994,-2.7018,-2.7023,-2.7025,-2.7033,-2.7038,-2.7038,-2.7039,-2.7039,-2.7038,-2.7038,0,0,0,0,0,0,-2.6916,-2.6921,-2.6951,-2.6953,-2.6942,-2.6965,-2.697,-2.6976,-2.6998,-2.7002,-2.6993,-2.6995,-2.7022,-2.7024,-2.7026,-2.7022,-2.7038,-2.7039,-2.7039,-2.7039,-2.7038,-2.7037,0,0,0,0,0,0,-2.6915,-2.6918,-2.695,-2.6938,-2.6943,-2.6966,-2.6972,-2.6976,-2.6981,-2.7002,-2.7006,-2.6994,-2.7022,-2.7025,-2.7029,-2.7023,-2.7039,-2.704,-2.7039,-2.7038,-2.7038,-2.7012,0,0,0,0,0,0,-2.6913,-2.6917,-2.6916,-2.6938,-2.6943,-2.6953,-2.6971,-2.6976,-2.6983,-2.6985,-2.7004,-2.7008,-2.7023,-2.7028,-2.703,-2.7024,-2.7041,-2.704,-2.7039,-2.7038,-2.7013,-2.7011,-2.7008,0,0,0,0,0,-2.6912,-2.6906,-2.6916,-2.6919,-2.6942,-2.6952,-2.6955,-2.6973,-2.6982,-2.6981,-2.6994,-2.7007,-2.7024,-2.7028,-2.703,-2.7025,-2.704,-2.7039,-2.7038,-2.7015,-2.7011,-2.7008,0,0,0,0,0,0,-2.6881,-2.6909,-2.692,-2.6922,-2.6935,-2.6957,-2.6956,-2.6969,-2.6979,-2.698,-2.7001,-2.7006,-2.7007,-2.7017,-2.7021,-2.7022,-2.7034,-2.7033,-2.7015,-2.7012,-2.7009,-2.7006,-2.7041,0,0,0,0,0,-2.6875,-2.6882,-2.6906,-2.6905,-2.6911,-2.6932,-2.6937,-2.6951,-2.6964,-2.697,-2.6984,-2.6996,-2.7004,-2.7008,-2.7017,-2.7015,-2.702,-2.7013,-2.701,-2.7008,-2.7007,-2.7008,-2.7005,-2.7034,-2.7034,-2.7034,0,0,-2.6861,-2.6877,-2.688,-2.6899,-2.6911,-2.6917,-2.6937,-2.6942,-2.6947,-2.697,-2.6975,-2.6986,-2.7001,-2.7003,-2.7004,-2.701,-2.7,-2.7007,-2.7005,-2.7005,-2.7006,-2.7004,-2.7001,-2.7033,-2.7033,-2.7033,0,0,-2.6839,-2.6853,-2.6854,-2.6866,-2.6884,-2.6898,-2.6899,-2.692,-2.6929,-2.6935,-2.6952,-2.6958,-2.6971,-2.6982,-2.6988,-2.6973,-2.6986,-2.6975,-2.6961,-2.6961,-2.6959,-2.6957,-2.6952,-2.6949,-2.6975,-2.6974,-2.6974,0,-2.682,-2.6831,-2.6852,-2.6858,-2.6866,-2.6889,-2.689,-2.69,-2.6919,-2.6924,-2.6932,-2.695,-2.6961,-2.6966,-2.6963,-2.6968,-2.6968,-2.6973,-2.6958,-2.6956,-2.6954,-2.695,-2.6947,-2.6973,-2.6973,-2.6973,-2.6974,0,-2.6806,-2.6814,-2.6812,-2.6833,-2.684,-2.6843,-2.6865,-2.687,-2.6883,-2.6897,-2.6903,-2.6918,-2.6931,-2.6933,-2.6945,-2.694,-2.6943,-2.6954,-2.6966,-2.695,-2.6946,-2.6944,-2.6971,-2.6972,-2.6972,-2.6972,0,0,-2.6764,-2.6798,-2.6797,-2.6807,-2.683,-2.6836,-2.684,-2.6854,-2.6858,-2.6871,-2.6875,-2.6887,-2.6898,-2.6906,-2.6919,-2.6919,-2.6907,-2.693,-2.6931,-2.6925,-2.6903,-2.6894,-2.6891,-2.6916,-2.6916,-2.6915,-2.6901,0,-2.6746,-2.6756,-2.6777,-2.6781,-2.6788,-2.6812,-2.6816,-2.683,-2.6843,-2.6851,-2.6865,-2.6873,-2.6887,-2.6892,-2.6894,-2.6908,-2.6903,-2.691,-2.6919,-2.6919,-2.6914,-2.6889,-2.688,-2.6866,-2.69,-2.6899,-2.6899,0,-2.6726,-2.6739,-2.6744,-2.6768,-2.6772,-2.6776,-2.6791,-2.6798,-2.6815,-2.6825,-2.6835,-2.685,-2.6856,-2.6868,-2.6876,-2.6881,-2.6886,-2.6894,-2.6894,-2.6895,-2.6908,-2.6889,-2.6862,-2.6859,-2.6897,-2.6897,-2.6897,0,-2.6695,-2.6714,-2.672,-2.6728,-2.6756,-2.6758,-2.6769,-2.6787,-2.6794,-2.6807,-2.6812,-2.6825,-2.6832,-2.6841,-2.686,-2.6867,-2.6866,-2.688,-2.6874,-2.6873,-2.6871,-2.6871,-2.6844,-2.6876,-2.6876,-2.6876,-2.6876,0,-2.6672,-2.6674,-2.6707,-2.671,-2.6714,-2.6737,-2.674,-2.6753,-2.6769,-2.6775,-2.6796,-2.6801,-2.6826,-2.6834,-2.6848,-2.6853,-2.6856,-2.6863,-2.6867,-2.6861,-2.686,-2.6864,-2.6865,-2.6875,-2.6875,-2.6875,-2.6876,0,-2.6637,-2.6659,-2.6667,-2.6694,-2.6701,-2.6702,-2.6725,-2.6729,-2.6745,-2.6752,-2.6755,-2.6779,-2.679,-2.681,-2.6825,-2.6835,-2.6837,-2.6843,-2.6831,-2.6833,-2.6826,-2.6826,-2.68,-2.6798,-2.6831,-2.6831,-2.6831,0,-2.662,-2.6623,-2.6651,-2.6658,-2.6669,-2.6679,-2.6687,-2.6711,-2.6719,-2.674,-2.6741,-2.6754,-2.6765,-2.6781,-2.6799,-2.6811,-2.6818,-2.6808,-2.682,-2.6815,-2.6818,-2.6817,-2.6818,-2.6805,-2.6805,-2.6804,-2.6804,0,-2.6589,-2.6601,-2.6613,-2.6629,-2.6639,-2.6653,-2.6667,-2.6671,-2.6698,-2.6706,-2.6718,-2.6727,-2.6745,-2.6757,-2.6772,-2.6783,-2.6798,-2.6801,-2.68,-2.6793,-2.6786,-2.679,-2.6823,-2.6801,-2.6801,-2.6801,-2.6801,-2.6802,-2.6563,-2.6567,-2.6588,-2.6601,-2.6615,-2.6629,-2.6634,-2.6652,-2.6663,-2.668,-2.6693,-2.6704,-2.6722,-2.6745,-2.6755,-2.6764,-2.677,-2.6769,-2.6769,-2.6768,-2.6766,-2.6786,-2.6766,-2.6767,-2.6767,-2.6767,-2.6767,0,-2.6532,-2.6548,-2.656,-2.6581,-2.6591,-2.6607,-2.6624,-2.6631,-2.6641,-2.6658,-2.6669,-2.6684,-2.6696,-2.6716,-2.673,-2.6733,-2.674,-2.6736,-2.6735,-2.6738,-2.6759,-2.6758,-2.673,-2.673,-2.673,-2.673,-2.673,-2.673,-2.6518,-2.6526,-2.654,-2.6555,-2.657,-2.6583,-2.6591,-2.6604,-2.6617,-2.6633,-2.6644,-2.6658,-2.6676,-2.6691,-2.6703,-2.6709,-2.6713,-2.6706,-2.6714,-2.6733,-2.6736,-2.6739,-2.6739,-2.6707,-2.6707,-2.6692,-2.6692,-2.6692]}]]